Tracking 19563 objects as of 20-Mar-2019
HD Live streaming from Space Station
objects crossing your sky now

METEOR 2-17 DEB

Track METEOR 2-17 DEB now!
10-day predictions


NORAD ID: 35368
Int'l Code: 1988-005AC
Perigee: 894.7 km
Apogee: 928.8 km
Inclination: 82.6 °
Period: 103.1 minutes
Semi major axis: 7282 km
RCS: 0.0006 m2 (small)
Launch date: January 30, 1988
Source: Commonwealth of Independent States (former USSR) (CIS)
Launch site: PLESETSK MISSILE AND SPACE COMPLEX (PKMTR)

Note: This is SATELLITE DEBRIS
aabbcc
Your satellite tracking list
Your tracking list is empty




NASA's NSSDC Master Catalog

Two Line Element Set (TLE):
1 35368U 88005AC  19078.17674859 +.00000612 +00000-0 +42834-3 0  9991
2 35368 082.5622 246.0810 0023461 178.3503 181.7746 13.96880747607916
Source of the keplerian elements: AFSPC